Temp
64 65 65 65 65 65 66 66 66 65 65 65 66 65 65 65 65 63 59 67 68 70 69 65 65 64 64 61 63 61 50 47 55 53 53 59 57 58 59 60 57 58 57 60 64
64 64 65 65 65 65 65 65 65 65 65 65 64 64 65 65 63 59 68 71 71 70 65 61 57 61 57 58 59 55 48 54 61 55 56 59 59 60 58 55 53 54 58 60 63
64 63 64 64 64 64 64 64 64 65 64 64 64 64 63 65 58 60 70 69 70 69 67 65 62 58 54 54 55 54 50 61 59 58 60 59 55 57 57 53 58 57 57 59 60
63 63 63 63 64 64 64 64 64 64 65 64 64 63 63 62 49 63 68 69 68 71 68 62 58 54 51 52 57 50 57 62 61 60 60 57 59 56 57 59 61 62 60 60 60
62 62 62 63 63 64 64 64 64 64 64 63 63 62 60 54 57 67 66 67 67 67 65 62 56 53 51 53 55 52 55 63 62 60 58 60 58 57 57 60 59 60 60 60 60
62 61 62 62 63 64 63 64 64 63 64 64 63 62 57 50 67 68 66 65 66 64 64 63 60 60 52 51 53 55 58 60 62 60 57 58 55 55 58 56 56 58 58 59 59
61 61 61 62 62 63 63 63 63 63 64 64 63 61 56 55 66 67 67 65 65 64 61 63 62 59 53 49 55 55 51 57 59 59 55 57 53 54 57 56 55 56 55 57 58
61 60 61 61 61 62 61 62 63 63 63 63 63 58 51 63 63 65 66 64 66 65 62 61 63 58 54 53 51 47 48 45 55 58 58 56 47 56 59 55 55 54 54 55 57
60 60 60 61 61 61 62 62 62 63 63 63 56 54 49 61 58 63 65 61 62 62 63 64 59 53 54 45 41 41 36 41 48 58 56 54 46 56 57 55 55 54 54 55 56
60 60 60 60 61 61 61 62 61 59 57 57 55 50 50 51 57 60 63 64 58 58 55 55 52 48 48 47 36 36 36 41 43 52 51 47 46 53 54 54 55 53 53 54 56
59 59 60 60 61 61 59 53 48 46 49 44 44 45 49 55 60 57 61 59 58 55 46 49 44 42 46 50 45 43 40 41 43 51 50 51 49 51 56 53 52 52 52 53 55
59 59 59 60 60 61 56 49 51 51 43 47 48 48 51 53 51 53 61 53 51 46 49 45 41 49 50 49 48 43 39 38 44 48 48 47 47 50 52 55 55 56 53 54 57
59 59 59 59 60 57 52 49 56 54 42 43 46 46 49 51 48 51 55 53 50 46 47 42 45 51 49 46 45 41 40 39 42 45 46 42 43 46 51 54 55 55 58 57 58
58 59 59 59 54 53 49 54 54 52 30 36 40 45 48 49 45 56 56 54 48 45 47 46 51 48 46 44 46 40 45 46 44 41 36 43 33 42 46 51 53 58 57 58 56
58 59 59 60 52 49 53 53 53 49 12 38 40 52 48 44 46 46 57 49 44 46 46 43 44 44 42 45 49 43 48 47 43 38 38 37 38 39 42 43 49 55 58 59 59
58 58 58 55 52 54 56 53 49 31 19 32 40 41 41 42 42 46 47 50 50 45 46 46 48 50 47 50 51 49 45 43 40 39 34 39 38 36 42 45 49 54 56 58 57
57 57 56 55 47 55 55 48 31 25 33 32 35 40 40 38 40 42 42 42 40 37 37 43 44 47 50 45 47 47 43 32 31 32 31 36 33 44 46 50 53 57 57 54 55
57 57 56 51 55 55 51 39 25 30 28 39 38 40 36 38 39 39 38 39 45 44 38 36 32 43 50 46 41 42 43 30 25 26 29 33 32 41 51 58 59 53 53 53 54
57 52 49 50 55 53 42 30 29 29 36 37 39 34 34 39 37 38 38 38 43 46 38 38 38 45 48 48 50 42 39 45 32 19 24 31 35 44 47 49 50 49 51 53 53
49 47 47 53 54 48 37 32 31 38 40 42 33 37 30 35 35 36 36 43 42 48 47 42 36 42 47 49 49 47 50 37 34 21 20 29 29 39 40 52 56 51 49 54 51
47 41 46 52 52 42 32 34 31 39 41 38 35 35 37 35 38 36 36 40 46 44 49 45 39 35 44 42 41 42 42 42 41 32 27 24 33 41 51 51 53 56 50 50 52
40 32 47 51 37 37 32 32 36 37 41 38 38 36 34 38 34 35 36 41 46 47 40 45 39 32 37 47 48 49 44 44 37 33 30 30 37 46 46 49 48 50 51 50 50
34 35 45 48 30 30 32 32 38 35 36 37 34 37 37 35 34 39 37 47 45 46 42 45 35 30 33 38 42 43 46 47 46 36 35 31 40 44 43 45 47 49 49 50 49
34 30 35 38 33 31 29 32 32 39 39 40 38 39 36 32 34 32 36 43 42 44 49 48 38 33 32 36 41 38 43 46 44 37 39 39 44 42 45 45 45 47 48 48 48
31 28 32 30 28 29 33 33 31 31 37 40 35 36 34 29 31 31 36 39 44 43 40 44 36 39 41 42 43 42 43 44 42 44 39 44 43 49 49 48 47 47 47 47 48
30 30 27 19 31 28 32 29 32 31 33 32 33 37 36 31 34 29 35 38 38 41 41 43 34 38 35 40 42 40 42 45 45 45 45 46 45 51 53 47 44 48 47 48 50
33 34 32 33 27 28 28 31 32 35 36 38 38 36 35 37 41 41 43 43 41 38 37 37 36 33 30 37 36 32 40 42 45 48 47 41 49 47 47 48 48 48 48 50 52
MSLP
1011.59 1012.08 1012.56 1012.97 1013.32 1013.68 1013.94 1014.31 1014.60 1015.00 1015.08 1015.23 1015.66 1016.16 1016.69 1017.19 1017.63 1017.83 1017.75 1017.09 1017.08 1017.09 1017.19 1017.18 1017.11 1017.15 1017.06 1017.35 1017.41 1017.55 1018.34 1018.01 1017.49 1017.41 1016.81 1016.74 1016.84 1017.07 1017.38 1017.86 1018.48 1018.80 1019.04 1018.92 1019.19
1010.98 1011.62 1012.09 1012.59 1013.06 1013.45 1013.77 1014.10 1014.34 1014.78 1015.00 1015.13 1015.46 1016.08 1016.49 1017.03 1017.56 1017.68 1016.85 1016.76 1016.87 1017.08 1017.41 1017.65 1017.64 1017.57 1017.77 1017.72 1017.74 1017.87 1018.35 1017.71 1016.95 1016.63 1016.43 1016.51 1016.72 1017.06 1017.52 1018.13 1018.74 1019.02 1019.12 1019.23 1019.43
1010.26 1011.00 1011.58 1012.08 1012.70 1013.12 1013.58 1014.06 1014.15 1014.48 1014.92 1015.15 1015.44 1015.99 1016.38 1016.58 1017.70 1016.96 1016.48 1016.74 1017.00 1017.21 1017.53 1017.84 1017.87 1017.93 1018.10 1018.05 1018.00 1018.12 1018.03 1017.49 1016.80 1016.43 1016.30 1016.58 1016.90 1017.18 1017.46 1018.13 1018.14 1018.63 1019.17 1019.54 1019.79
1009.64 1010.34 1011.11 1011.68 1012.24 1012.84 1013.34 1013.77 1014.05 1014.33 1014.73 1015.28 1015.40 1016.06 1016.60 1017.06 1016.68 1016.17 1016.09 1016.65 1017.14 1017.20 1017.66 1018.08 1018.35 1018.35 1018.44 1018.37 1018.04 1018.22 1017.76 1017.30 1016.86 1016.40 1016.36 1016.70 1016.87 1017.19 1017.51 1017.22 1017.39 1017.86 1018.49 1019.28 1019.81
1008.99 1009.64 1010.51 1011.27 1011.93 1012.61 1013.07 1013.59 1013.99 1014.29 1014.63 1015.24 1015.48 1016.14 1016.87 1017.00 1016.18 1015.80 1015.90 1016.49 1017.09 1017.33 1017.96 1018.47 1018.76 1018.51 1018.65 1018.38 1018.26 1018.10 1017.80 1017.22 1016.80 1016.66 1016.70 1016.83 1017.00 1017.18 1017.26 1017.22 1017.53 1018.20 1018.88 1019.30 1019.65
1008.22 1008.96 1009.86 1010.77 1011.51 1012.19 1012.79 1013.38 1013.82 1014.16 1014.43 1014.97 1015.56 1016.08 1016.60 1016.60 1015.56 1015.96 1015.93 1016.68 1017.14 1017.75 1018.43 1018.79 1018.97 1018.71 1018.66 1018.56 1018.44 1017.91 1017.74 1017.34 1017.05 1017.12 1017.05 1017.15 1017.17 1017.29 1017.14 1017.47 1018.09 1018.58 1018.97 1019.37 1019.61
1007.48 1008.30 1009.22 1010.26 1011.15 1011.84 1012.53 1013.15 1013.60 1013.98 1014.20 1014.88 1015.64 1016.04 1016.46 1015.96 1015.73 1016.07 1015.98 1016.69 1016.63 1017.81 1018.61 1019.04 1019.51 1019.20 1018.75 1018.81 1018.42 1018.33 1018.25 1017.75 1017.37 1017.23 1017.28 1017.24 1017.64 1017.51 1017.43 1017.89 1018.46 1018.86 1019.20 1019.56 1019.61
1006.81 1007.60 1008.58 1009.72 1010.73 1011.57 1012.18 1012.94 1013.51 1014.01 1014.30 1014.92 1015.68 1016.28 1016.39 1016.12 1016.03 1016.27 1016.37 1017.00 1016.74 1017.88 1018.92 1019.49 1019.56 1019.30 1018.95 1018.93 1018.82 1018.92 1018.86 1018.59 1017.69 1017.56 1017.48 1017.78 1017.57 1017.47 1017.63 1018.20 1018.58 1018.97 1019.20 1019.34 1019.37
1006.09 1007.03 1008.02 1009.07 1010.24 1011.27 1012.08 1012.78 1013.53 1014.16 1014.62 1014.95 1015.89 1016.29 1016.72 1016.60 1016.51 1016.47 1016.45 1016.91 1017.57 1018.04 1019.28 1019.49 1019.78 1019.96 1019.55 1019.46 1019.84 1019.84 1019.41 1018.94 1018.45 1017.79 1018.08 1018.29 1017.97 1017.56 1017.53 1018.22 1018.64 1018.78 1018.99 1019.03 1019.23
1005.40 1006.55 1007.38 1008.48 1009.72 1010.83 1011.77 1012.75 1013.81 1014.80 1015.47 1015.67 1016.21 1016.86 1016.83 1016.08 1016.04 1016.61 1016.74 1016.78 1017.71 1018.28 1019.85 1020.01 1020.46 1020.08 1020.08 1019.82 1019.64 1020.08 1019.94 1019.32 1018.78 1018.38 1018.40 1018.46 1018.32 1017.92 1017.83 1018.25 1018.36 1018.43 1018.63 1018.82 1018.71
1004.69 1005.91 1007.07 1008.02 1009.22 1010.39 1011.84 1013.34 1014.99 1015.90 1015.42 1015.28 1015.49 1015.74 1015.63 1015.74 1015.89 1016.56 1016.82 1017.26 1017.85 1018.40 1019.19 1019.87 1020.56 1020.02 1019.84 1019.76 1019.86 1019.88 1019.85 1019.61 1019.05 1018.58 1018.81 1018.46 1018.23 1018.21 1017.85 1018.07 1018.16 1018.24 1018.13 1018.10 1018.03
1003.89 1005.30 1006.61 1007.88 1008.85 1010.13 1011.35 1012.22 1012.33 1012.30 1014.71 1015.45 1015.47 1015.89 1015.72 1015.63 1016.31 1016.60 1016.69 1017.45 1017.96 1018.09 1018.83 1020.16 1019.00 1018.77 1019.69 1019.81 1020.17 1020.24 1020.23 1020.04 1019.66 1019.06 1019.29 1018.88 1018.20 1017.98 1017.76 1017.48 1016.94 1017.15 1017.40 1017.22 1017.00
1003.07 1004.58 1006.09 1007.50 1008.42 1010.17 1010.74 1011.69 1012.23 1012.54 1014.84 1015.80 1016.30 1016.03 1015.98 1016.04 1016.01 1016.22 1016.91 1016.91 1017.36 1018.02 1018.07 1018.48 1018.46 1018.90 1019.57 1019.84 1020.26 1020.26 1020.19 1020.39 1020.15 1019.54 1019.38 1019.44 1018.25 1017.57 1016.97 1016.40 1016.04 1015.88 1015.86 1015.91 1016.00
1002.28 1004.01 1005.49 1007.03 1009.00 1009.72 1011.05 1011.40 1011.84 1012.64 1014.84 1016.03 1016.42 1015.73 1015.97 1016.39 1016.29 1015.83 1016.28 1016.39 1017.50 1017.37 1018.05 1018.44 1018.30 1018.32 1018.96 1019.07 1019.73 1020.05 1020.13 1020.48 1020.44 1020.35 1019.92 1019.43 1017.87 1016.68 1016.32 1015.87 1015.46 1014.87 1014.99 1014.92 1015.03
1001.75 1003.67 1005.13 1006.03 1006.94 1008.60 1009.85 1011.15 1012.02 1012.61 1014.68 1014.48 1015.37 1014.92 1015.40 1016.07 1015.53 1016.15 1015.90 1016.73 1016.91 1017.12 1017.92 1017.23 1017.66 1018.09 1018.48 1017.78 1019.57 1019.66 1020.01 1020.59 1020.70 1020.84 1020.55 1019.81 1019.42 1016.10 1015.99 1015.68 1015.10 1013.92 1013.80 1013.77 1013.76
1001.60 1003.23 1004.73 1006.64 1007.91 1008.88 1010.09 1011.23 1012.63 1014.59 1014.08 1014.41 1014.48 1014.74 1015.56 1015.76 1015.82 1016.09 1016.27 1016.75 1016.96 1017.27 1017.36 1017.28 1017.33 1017.91 1017.57 1018.21 1018.88 1019.52 1020.44 1020.83 1021.13 1021.49 1020.60 1019.50 1019.44 1015.66 1015.47 1014.79 1014.24 1013.51 1013.11 1012.72 1012.94
1001.37 1002.87 1004.43 1005.94 1007.17 1008.49 1009.86 1011.83 1013.28 1012.91 1013.15 1013.88 1013.81 1014.11 1014.60 1015.28 1016.18 1015.95 1016.19 1016.47 1016.34 1017.05 1016.64 1016.98 1017.13 1017.08 1017.23 1018.27 1018.94 1019.52 1020.21 1020.73 1021.49 1021.38 1019.18 1018.57 1019.16 1014.80 1014.08 1013.39 1013.14 1012.75 1012.43 1012.13 1012.20
1001.16 1002.88 1004.57 1006.16 1007.20 1008.42 1009.86 1011.70 1011.76 1011.69 1012.11 1012.17 1012.60 1013.90 1014.30 1015.12 1015.71 1015.95 1016.38 1016.53 1016.45 1015.96 1016.13 1016.64 1017.15 1016.09 1016.00 1016.16 1016.65 1017.83 1018.69 1019.17 1020.04 1020.64 1019.48 1019.40 1017.32 1013.41 1012.61 1012.06 1011.70 1011.86 1012.01 1012.04 1012.09
1001.38 1003.49 1005.09 1006.34 1006.98 1008.03 1009.71 1010.65 1010.77 1010.96 1011.20 1011.52 1012.70 1013.64 1014.48 1014.60 1014.68 1015.92 1015.68 1015.20 1015.22 1015.74 1015.72 1015.25 1015.23 1015.06 1015.23 1015.89 1016.34 1017.46 1017.42 1017.60 1019.45 1020.72 1020.29 1018.32 1015.74 1013.66 1012.42 1012.03 1011.49 1011.11 1011.61 1011.64 1011.85
1001.40 1003.52 1005.45 1006.19 1007.02 1008.30 1009.81 1010.40 1011.42 1011.12 1011.09 1011.58 1012.28 1013.13 1013.61 1013.98 1014.68 1015.05 1015.23 1013.79 1014.12 1014.31 1015.40 1015.17 1015.33 1014.91 1015.48 1015.78 1015.92 1015.40 1016.06 1017.74 1018.65 1019.57 1019.48 1017.17 1015.72 1012.68 1011.60 1010.83 1010.32 1010.36 1010.59 1010.82 1011.46
1002.14 1004.22 1005.80 1006.39 1007.37 1008.81 1009.10 1010.66 1011.73 1011.47 1011.40 1012.01 1012.47 1012.90 1013.32 1013.82 1014.11 1014.41 1013.78 1013.58 1013.67 1013.41 1014.40 1015.24 1015.28 1015.28 1015.28 1014.27 1013.53 1014.62 1014.89 1015.60 1016.24 1017.09 1016.96 1016.32 1013.34 1011.29 1010.62 1010.20 1009.72 1009.28 1009.57 1010.48 1011.09
1002.35 1004.41 1005.58 1006.21 1007.43 1008.60 1009.63 1010.63 1011.80 1011.61 1011.93 1012.20 1012.60 1012.60 1013.11 1013.46 1014.24 1014.38 1013.53 1012.62 1012.68 1013.78 1014.32 1014.93 1015.61 1015.26 1014.14 1013.79 1013.59 1013.58 1013.97 1014.93 1015.22 1015.61 1015.58 1015.00 1011.11 1009.94 1009.64 1009.41 1009.29 1009.23 1009.55 1010.03 1010.60
1003.55 1005.12 1006.45 1006.30 1007.47 1008.44 1010.09 1010.96 1011.02 1011.38 1011.71 1012.02 1012.35 1012.32 1013.05 1013.65 1014.31 1013.73 1013.56 1013.08 1012.96 1013.60 1013.27 1013.94 1014.61 1014.85 1014.53 1014.61 1013.88 1012.81 1012.18 1012.29 1013.18 1013.63 1013.64 1013.83 1009.86 1009.02 1009.18 1008.94 1008.95 1009.48 1009.66 1009.85 1010.73
1003.89 1006.05 1007.32 1007.51 1008.63 1008.81 1009.76 1010.64 1011.12 1011.20 1011.68 1012.26 1012.41 1012.61 1013.50 1014.02 1014.17 1014.27 1013.75 1013.54 1013.25 1013.29 1013.35 1013.38 1013.65 1013.28 1012.33 1011.21 1012.02 1012.32 1011.67 1011.70 1012.51 1013.04 1011.05 1011.17 1008.88 1009.48 1009.17 1009.16 1009.32 1009.27 1009.53 1009.77 1010.34
1004.10 1006.52 1007.09 1007.80 1009.59 1009.58 1009.75 1010.58 1010.97 1011.44 1011.58 1011.85 1012.53 1012.62 1013.33 1014.02 1014.65 1014.54 1014.31 1014.11 1013.67 1013.24 1013.63 1013.56 1012.58 1012.55 1011.52 1011.48 1011.31 1010.95 1010.81 1010.92 1010.93 1010.12 1011.23 1008.27 1009.22 1008.92 1008.75 1008.86 1008.88 1008.95 1009.73 1010.42 1010.72
1004.33 1006.17 1007.60 1008.69 1009.34 1010.01 1010.08 1010.57 1010.60 1011.13 1011.28 1011.60 1011.38 1011.61 1012.27 1012.80 1012.57 1013.09 1013.22 1013.36 1013.20 1013.80 1013.77 1013.55 1011.92 1012.60 1011.74 1011.65 1011.19 1010.61 1010.51 1010.15 1009.81 1009.21 1009.87 1007.95 1007.68 1007.40 1008.22 1008.46 1008.96 1008.97 1009.63 1009.98 1010.30
1004.80 1005.46 1006.24 1009.01 1010.10 1010.39 1010.08 1009.95 1009.95 1010.25 1010.80 1010.77 1010.95 1011.69 1011.92 1011.21 1011.61 1011.97 1012.40 1012.69 1012.84 1013.19 1013.81 1013.76 1013.19 1012.52 1010.90 1011.11 1011.17 1010.00 1008.60 1008.54 1007.44 1006.53 1006.99 1006.57 1004.42 1006.86 1007.57 1008.05 1008.12 1008.62 1009.04 1009.04 1009.12
Wind_Speed
22 20 19 16 15 13 11 14 13 12 12 13 13 13 14 12 8 3 6 5 3 3 4 2 3 3 3 3 2 4 3 2 3 4 3 4 4 1 2 6 2 1 6 3 11
22 22 20 18 16 14 12 11 15 12 9 12 14 15 16 13 5 5 3 2 3 4 2 0 1 1 2 1 2 4 3 6 2 4 4 5 4 7 4 3 1 0 2 5 13
22 23 22 20 17 16 14 12 13 15 11 10 16 16 16 7 5 8 9 3 4 4 2 0 1 1 2 1 2 3 5 3 2 1 4 4 1 1 7 3 7 8 7 9 8
23 22 22 21 19 16 15 12 11 13 13 13 16 18 13 6 9 6 14 9 1 4 2 1 1 4 4 5 3 3 5 4 4 1 3 3 4 3 6 6 1 8 14 13 13
25 23 23 22 20 18 16 14 12 12 14 19 18 17 7 5 4 5 10 9 3 3 2 1 3 4 6 5 3 4 3 4 2 4 2 4 5 4 6 5 6 8 10 14 12
25 24 23 23 22 19 17 14 14 14 13 20 20 17 4 10 2 2 11 12 8 4 3 2 3 3 3 2 5 2 6 4 2 1 2 5 3 2 3 2 6 10 11 12 13
26 26 24 24 23 21 18 15 12 11 13 20 20 4 3 9 4 4 13 9 8 5 4 5 5 4 2 2 3 2 1 0 4 3 3 4 5 6 2 4 6 8 7 8 10
26 27 25 25 24 22 19 16 12 11 13 20 18 3 5 2 3 5 6 5 10 10 6 6 6 3 2 2 4 3 2 3 3 6 3 6 8 6 7 7 8 9 8 10 12
26 26 26 25 24 23 19 16 13 12 9 18 7 5 5 4 4 4 4 10 6 9 4 7 4 3 2 6 3 4 4 5 2 7 3 5 5 8 4 8 9 9 8 9 7
28 27 28 27 25 24 22 19 15 13 7 7 2 5 3 7 7 6 2 11 5 10 5 4 3 1 1 6 9 6 4 3 6 7 5 5 8 7 4 6 11 8 8 9 10
30 28 28 27 27 25 20 12 9 2 5 7 6 1 5 5 6 6 7 6 4 2 6 3 7 8 5 7 2 5 4 5 3 3 4 7 12 10 12 6 8 8 9 11 13
31 30 29 28 28 28 15 9 15 6 10 3 5 4 2 2 7 10 13 11 9 10 10 6 19 24 5 3 8 3 2 3 4 3 4 8 14 11 8 10 9 10 10 12 12
31 31 31 30 30 21 18 8 8 9 6 3 0 1 2 2 6 18 16 6 10 12 16 10 2 13 8 6 8 4 6 4 5 2 3 3 13 11 8 12 9 9 11 10 15
33 33 31 31 21 15 14 9 9 4 6 5 8 6 4 5 4 7 11 8 5 17 15 8 4 15 14 10 10 11 7 4 4 3 5 5 9 7 6 14 10 16 13 15 13
34 33 33 33 14 18 17 7 7 6 3 9 9 5 10 8 7 8 12 2 9 9 8 9 12 14 13 17 14 6 7 11 1 3 5 4 5 6 2 7 10 16 16 15 13
36 35 34 14 8 14 16 10 6 6 11 7 9 15 13 7 1 5 5 2 3 3 8 8 4 12 10 9 15 7 5 3 3 2 12 10 10 7 8 8 9 10 12 13 11
35 35 31 11 13 16 17 12 10 8 3 10 11 20 23 13 11 7 12 18 12 16 17 12 10 3 6 6 6 8 9 3 6 8 13 6 8 19 6 10 11 14 13 10 10
36 35 20 5 16 21 12 12 12 6 7 3 10 17 18 14 12 10 9 15 21 17 7 14 13 16 15 14 11 25 17 6 9 7 5 4 12 10 13 19 17 11 11 8 9
36 12 11 9 19 13 16 16 8 6 7 9 15 12 10 11 8 10 15 21 16 24 12 15 18 7 11 7 15 10 16 8 5 2 2 7 9 8 10 11 11 12 10 13 9
12 11 10 14 16 11 14 10 5 0 5 12 8 12 13 22 9 19 18 19 23 26 21 4 12 10 14 4 4 14 13 5 1 5 6 7 7 12 6 21 19 12 13 13 8
10 9 8 13 11 13 15 10 5 2 3 6 5 9 14 15 16 25 13 7 24 16 23 7 3 1 12 18 24 12 16 9 7 6 6 4 10 9 19 16 18 19 10 9 9
5 5 10 13 10 7 8 10 5 8 4 5 1 4 7 19 15 18 25 23 11 11 18 11 0 4 18 9 14 19 13 20 8 14 4 2 13 5 10 8 4 7 8 6 6
6 3 3 9 7 5 7 7 4 4 5 5 3 3 3 5 13 18 9 15 6 18 18 19 7 5 6 8 4 18 24 25 23 3 18 10 17 4 5 6 8 8 8 8 7
6 6 3 3 1 6 9 7 6 3 6 5 3 6 5 3 1 4 12 3 2 7 23 14 12 9 14 7 6 20 25 24 25 14 24 21 28 4 5 5 5 6 7 8 10
4 2 1 11 5 5 5 9 9 6 3 6 4 7 9 5 8 8 7 4 8 3 3 11 22 23 24 18 8 12 26 26 24 33 20 31 20 23 12 8 8 5 5 7 8
6 6 3 4 9 8 3 8 15 6 9 7 5 15 9 8 12 10 11 7 6 4 6 6 6 17 23 22 22 21 20 27 28 30 25 33 25 9 12 5 3 8 9 10 12
1 3 7 4 4 6 6 6 7 8 3 6 12 6 10 18 9 4 6 5 5 9 8 4 10 7 18 13 8 15 30 30 32 34 34 32 42 6 10 12 14 12 12 16 16
Wind_Direction
208 209 206 201 207 205 200 205 192 200 200 188 188 170 152 146 138 132 206 196 202 24 355 7 7 6 36 12 12 112 60 193 210 179 219 189 135 98 85 117 67 29 152 249 133
205 205 205 200 197 201 200 200 197 195 196 189 161 166 150 142 125 225 220 205 343 121 46 346 247 23 50 346 345 99 128 218 243 202 197 186 168 162 129 134 144 55 18 116 138
204 200 201 200 193 194 200 197 197 196 184 187 158 145 146 146 151 226 198 212 51 102 22 158 137 127 136 117 202 160 177 239 265 136 149 141 125 248 121 231 205 191 165 155 159
202 196 196 196 191 189 194 193 194 195 179 157 144 145 149 183 215 206 188 179 282 89 40 91 154 146 160 187 191 162 248 234 295 46 84 167 131 204 191 225 278 188 160 164 176
200 193 192 191 189 185 188 198 191 195 178 157 142 140 152 204 236 163 162 151 113 63 109 200 214 143 188 194 157 156 230 266 289 283 240 139 217 229 236 254 89 132 156 178 185
197 190 187 189 187 181 182 192 196 186 186 161 157 158 144 190 200 260 150 151 151 140 168 136 316 241 171 186 175 187 208 244 269 240 234 174 239 118 264 141 124 153 181 189 191
196 187 183 184 187 181 176 184 190 185 188 161 165 161 189 214 185 165 137 169 126 115 107 63 1 295 109 159 254 215 54 230 237 213 239 135 287 228 204 154 172 187 189 203 206
196 186 182 181 181 179 176 171 177 170 175 165 160 125 200 252 14 155 121 84 117 109 96 38 342 290 190 217 44 142 132 227 237 156 250 151 253 247 209 158 207 215 208 207 215
194 187 180 176 175 173 168 167 167 151 136 174 155 187 198 147 179 181 130 132 104 100 103 103 59 310 0 115 49 353 190 180 255 199 128 190 252 241 200 183 220 229 223 221 223
191 187 178 172 170 170 166 167 150 91 92 86 22 131 195 208 145 152 102 122 117 122 100 137 72 275 213 191 202 188 180 193 194 211 199 234 253 279 257 191 229 234 229 219 226
187 179 178 172 168 164 153 126 128 130 209 182 185 168 140 138 115 178 173 118 100 133 157 145 202 234 201 219 174 151 168 174 219 264 195 237 250 247 260 246 242 239 228 227 226
185 177 174 169 159 164 144 173 171 165 156 51 115 70 52 212 147 178 152 167 175 190 123 149 215 209 185 251 222 159 205 219 297 271 171 284 267 241 237 248 230 225 226 230 235
179 177 172 167 155 158 171 153 137 110 124 203 148 119 150 100 174 183 171 160 174 172 180 193 324 168 183 177 202 195 175 188 205 318 220 280 272 263 241 237 239 234 225 220 222
173 173 172 163 153 157 173 177 143 109 100 195 194 242 154 174 242 160 205 150 199 201 187 223 182 172 181 210 199 229 169 205 218 162 226 158 279 248 237 245 236 246 225 231 226
168 169 166 169 141 175 158 133 112 61 103 183 169 164 151 189 137 196 188 161 189 159 163 198 192 182 193 198 189 206 159 208 244 277 339 217 274 268 254 257 246 245 240 230 223
165 166 165 154 132 152 135 124 72 142 228 165 145 169 160 197 132 103 156 61 87 197 207 214 192 179 195 182 179 130 92 89 72 129 254 219 216 205 211 205 240 249 248 237 224
162 166 163 149 156 144 139 137 181 197 198 160 170 176 174 176 187 158 181 193 191 191 204 202 193 177 160 142 144 173 158 186 198 210 245 182 199 246 231 236 240 251 248 242 235
161 165 157 125 140 145 152 165 197 162 188 166 144 159 185 142 199 169 163 204 216 210 169 204 211 181 194 194 175 197 185 170 194 203 258 91 233 244 210 229 243 234 252 269 255
155 145 144 153 148 156 157 191 194 168 145 139 129 162 177 195 146 164 209 210 215 211 211 196 226 152 190 180 160 187 208 183 100 64 50 218 282 288 250 262 261 242 233 245 246
140 138 149 156 153 153 168 180 144 223 121 144 149 177 182 185 158 190 185 212 213 219 208 239 231 199 186 122 246 184 176 180 130 165 245 256 264 238 234 223 230 244 223 233 229
123 139 143 154 142 170 191 173 135 225 109 153 156 153 196 181 196 195 209 222 199 205 199 215 194 262 163 200 191 185 193 196 180 171 192 258 254 209 216 216 232 232 207 208 214
92 107 142 155 162 186 170 151 164 148 101 127 146 92 149 177 191 191 218 206 180 184 201 186 107 227 223 213 228 208 205 202 212 217 223 177 258 241 235 251 286 233 204 198 199
88 86 45 161 172 154 129 132 126 126 178 148 122 93 100 139 197 204 203 227 126 188 192 196 193 208 172 242 274 212 208 201 212 83 215 216 257 194 225 252 230 224 208 186 174
100 120 80 90 31 123 121 144 114 114 139 146 112 71 123 110 325 158 250 324 18 195 213 175 202 218 233 242 122 214 215 213 206 226 234 228 247 234 240 254 253 217 204 183 169
55 104 137 166 165 136 110 145 132 150 156 161 136 175 162 150 164 204 204 215 277 309 317 238 228 230 234 236 247 237 217 208 205 223 217 240 236 241 263 239 226 217 161 165 180
119 132 63 95 116 90 165 191 170 151 145 203 192 196 175 177 188 177 172 185 186 194 229 235 240 220 243 246 243 241 229 215 217 226 231 249 245 222 218 276 213 205 191 193 199
40 40 94 118 103 124 205 180 160 112 169 150 199 128 202 228 221 198 189 153 167 166 177 265 236 224 234 220 225 245 217 218 218 225 217 230 234 129 192 211 217 212 204 208 202